Flag for U.S.A. Weather past 2 weeks in Asheville, North Carolina, U.S.A.

Now
63 °F

Clear.


Feels Like: 63 °F
Forecast: 60 / 79 °F
Wind: 3 mph from South

Location: Asheville Regional Airport

Current Time: May 25, 2015 at 12:04:35 AM

Latest Report: May 24, 2015 at 10:54 PM


Visibility: 10 mi

Pressure: 30.30 "Hg

Humidity: 65%

Dew point: 51 °F

Location of AshevilleLocation

Historic Weather in Asheville — Graph

°F

Asheville temperature yesterday

Maximum temperature yesterday: 76 °F (at 1:54 PM)
Minimum temperature yesterday: 50 °F (at 3:54 AM)
Average temperature yesterday: 64 °F

Past Weeks' High & Low Weather Summary

 TemperatureHumidityPressure
High85 °F (May 10, 2:54 PM)100% (May 11, 6:54 AM)30.44 "Hg (May 11, 6:54 AM)
Low44 °F (May 23, 5:54 AM)17% (May 13, 1:54 PM)29.81 "Hg (May 21, 5:54 AM)
Average67 °F64%30.16 "Hg
* Reported May 9 9:54 PM — May 24 9:54 PM, Asheville, Weather by CustomWeather, © 2015

Note: Actual official high and low records may vary slightly from our data, if they occured in-between our weather recording intervals... More about our weather records

Advertising

Asheville weather history for previous 24 hours

 ConditionsComfort  
Time TempWeatherWind HumidityBarometerVisibility
9:54 PM
Sun, May 24
64 °FClear.5 mph63%30.29 "Hg10 mi
8:54 PM68 °FSunny.5 mph53%30.28 "Hg10 mi
7:54 PM72 °FSunny.9 mph44%30.28 "Hg10 mi
6:54 PM74 °FSunny.10 mph38%30.27 "Hg10 mi
5:54 PM75 °FPassing clouds.12 mph39%30.29 "Hg10 mi
4:54 PM76 °FSunny.8 mph37%30.28 "Hg10 mi
3:54 PM75 °FSunny.8 mph37%30.30 "Hg10 mi
2:54 PM76 °FSunny.14 mph36%30.32 "Hg10 mi
1:54 PM76 °FPassing clouds.8 mph37%30.35 "Hg10 mi
12:54 PM74 °FSunny.10 mph38%30.35 "Hg10 mi
11:54 AM73 °FPassing clouds.10 mph40%30.37 "Hg10 mi
10:54 AM69 °FScattered clouds.6 mph55%30.38 "Hg10 mi
9:54 AM66 °FSunny.6 mph63%30.39 "Hg10 mi
8:54 AM60 °FSunny.3 mph72%30.40 "Hg10 mi
7:54 AM53 °FSunny.No wind83%30.40 "Hg10 mi
7:01 AM52 °FPassing clouds.No wind80%30.44 "Hg10 mi
6:54 AM51 °FPassing clouds.No wind83%30.40 "Hg10 mi
5:54 AM51 °FClear.3 mph80%30.37 "Hg10 mi
4:54 AM50 °FClear.No wind83%30.36 "Hg10 mi
3:54 AM50 °FClear.5 mph86%30.35 "Hg10 mi
2:54 AM51 °FClear.No wind86%30.35 "Hg10 mi
1:54 AM52 °FClear.3 mph83%30.35 "Hg10 mi
12:54 AM55 °FClear.No wind74%30.35 "Hg10 mi
Weather by CustomWeather, © 2015

See weather overviewHow to use our weather pages